This is the latest recevied weather packets stored in our database for station/object EFTP. If no packets are shown the sender has not sent any weather packets the latest 10 day(s).
| Time | Temp. | Humidity | Pressure | Rain* | Wind** | Luminosity | Snow |
|---|---|---|---|---|---|---|---|
| 1777764427 | 9.44° C | 60% | 1005.3 hPa | - | - | - | - |
| 1777763226 | 10° C | 56% | 1005.5 hPa | - | - | - | - |
| 1777762027 | 10° C | 57% | 1005.8 hPa | - | - | - | - |
| 1777760827 | 10° C | 56% | 1005.8 hPa | - | - | - | - |
| 1777759627 | 10.56° C | 51% | 1005.9 hPa | - | - | - | - |
| 1777758426 | 11.11° C | 51% | 1005.9 hPa | - | - | - | - |
| 1777757226 | 10.56° C | 56% | 1006 hPa | - | - | - | - |
| 1777756026 | 10.56° C | 51% | 1006.1 hPa | - | - | - | - |
| 1777754827 | 10° C | 60% | 1006.3 hPa | - | - | - | - |
| 1777753626 | 11.67° C | 50% | 1006.4 hPa | - | - | - | - |
| 1777752426 | 11.11° C | 52% | 1006.6 hPa | - | - | - | - |
| 1777751226 | 11.67° C | 46% | 1007 hPa | - | - | - | - |
| 1777750026 | 12.22° C | 44% | 1006.8 hPa | - | - | - | - |
| 1777748825 | 12.22° C | 44% | 1006.9 hPa | - | - | - | - |
| 1777747625 | 12.22° C | 44% | 1006.9 hPa | - | - | - | - |
| 1777746426 | 13.89° C | 40% | 1006.8 hPa | - | - | - | - |
| 1777745225 | 13.89° C | 39% | 1006.6 hPa | - | - | - | - |
| 1777744025 | 15° C | 36% | 1006.7 hPa | - | - | - | - |
| 1777742826 | 15.56° C | 34% | 1006.7 hPa | - | - | - | - |
| 1777741625 | 16.11° C | 33% | 1006.7 hPa | - | - | - | - |
| 1777740425 | 16.67° C | 33% | 1006.7 hPa | - | - | - | - |
| 1777739225 | 16.67° C | 32% | 1006.9 hPa | - | - | - | - |
| 1777738025 | 16.67° C | 31% | 1006.8 hPa | - | - | - | - |
| 1777736825 | 16.67° C | 32% | 1007 hPa | - | - | - | - |
| 1777735624 | 17.22° C | 32% | 1007.1 hPa | - | - | - | - |
* Rain since midnight (hover to see other rain measurements)
** Current wind speed in m/s (hover to see current wind gust speed)